TURKSAT 4A

Last updated on Sept. 20, 2020, 5:45 a.m. UTC

1 39522U 14007A   20263.84146473  .00000131  00000-0  00000-0 0  9998
2 39522   0.0643 272.5411 0003313 310.7816 120.8212  1.00267899 23962
UTC
Height (km)
Latitude
Longitude
Inclination
Orbital Period
UTC large
Height (km)
Speed (km/s)
/
Latitude / Longitude
Inclination (degrees)
Orbital Period (minutes)
Azimuth
Elevation
Range (km)
Doppler Factor
iOS Compass Heading
iOS Angle

Next 30 passes for location: Hong Kong

Rise time Rise Azimuth (degrees) Set time Set Azimuth (degrees) Duration Max altitude (degrees)

No matching passes for this satellites